START_TIME,STEP,MOV.,AL01,t_acc.,AL02,t_acc.,E37,t_acc.,H21,t_acc.
1979-03-01 03:00:23.750 ,5,1,0.,24.0,0.,24.0,0.,24.0,0.,24.0
1979-03-01 03:00:47.750 ,6,1,0.,24.0,0.,24.0,1.,24.0,0.,24.0
1979-03-01 03:01:11.750 ,7,1,0.,24.0,0.,24.0,0.,24.0,0.,24.0
1979-03-01 03:01:35.750 ,7,1,9.,24.0,0.,24.0,0.,24.0,0.,24.0
1979-03-01 03:01:59.750 ,6,1,7.,24.0,0.,24.0,0.,24.0,0.,24.0
1979-03-01 03:02:23.750 ,5,1,0.,24.0,0.,24.0,0.,24.0,0.,24.0
1979-03-01 03:02:47.750 ,4,1,1.,24.0,0.,24.0,1.,24.0,0.,24.0
1979-03-01 03:03:11.750 ,3,1,0.,24.0,0.,24.0,1.,24.0,0.,24.0
1979-03-01 03:03:35.750 ,2,1,0.,24.0,1.,24.0,1.,24.0,0.,24.0
1979-03-01 03:03:59.750 ,1,1,0.,24.0,0.,24.0,1.,24.0,0.,24.0
1979-03-01 03:04:23.750 ,0,1,0.,24.0,0.,24.0,0.,24.0,0.,24.0
1979-03-01 03:04:47.750 ,0,0,0.,24.0,0.,24.0,0.,24.0,0.,24.0
1979-03-01 03:05:11.750 ,1,1,0.,24.0,0.,24.0,0.,24.0,0.,24.0
1979-03-01 03:05:35.750 ,2,1,0.,24.0,0.,24.0,0.,24.0,0.,24.0
1979-03-01 03:05:59.750 ,3,1,0.,24.0,0.,24.0,0.,24.0,0.,24.0
1979-03-01 03:06:23.750 ,4,1,0.,24.0,1.,24.0,0.,24.0,0.,24.0
1979-03-01 03:06:47.750 ,5,1,0.,24.0,0.,24.0,0.,24.0,0.,24.0
1979-03-01 03:07:11.750 ,6,1,0.,24.0,0.,24.0,1.,24.0,0.,24.0
1979-03-01 03:07:35.750 ,7,1,4.,24.0,0.,24.0,0.,24.0,0.,24.0
1979-03-01 03:07:59.750 ,7,1,18.,24.0,0.,24.0,0.,24.0,0.,24.0
1979-03-01 03:08:23.750 ,0,0,9.,24.0,0.,24.0,0.,24.0,0.,24.0
1979-03-01 03:08:47.750 ,0,0,0.,24.0,0.,24.0,0.,24.0,0.,24.0
1979-03-01 03:09:11.750 ,0,0,0.,24.0,0.,24.0,0.,24.0,0.,24.0
1979-03-01 03:09:35.750 ,3,1,0.,24.0,0.,24.0,0.,24.0,0.,24.0
1979-03-01 03:09:59.750 ,2,1,0.,24.0,0.,24.0,2.,24.0,0.,24.0
1979-03-01 03:10:23.750 ,1,1,0.,24.0,0.,24.0,1.,24.0,0.,24.0
1979-03-01 03:10:47.750 ,0,1,0.,24.0,0.,24.0,0.,24.0,0.,24.0
1979-03-01 03:11:11.750 ,0,1,0.,24.0,0.,24.0,0.,24.0,0.,24.0
1979-03-01 03:11:35.750 ,1,1,0.,24.0,1.,24.0,0.,24.0,0.,24.0
1979-03-01 03:11:59.750 ,2,1,0.,24.0,0.,24.0,0.,24.0,0.,24.0
1979-03-01 03:12:23.750 ,3,1,0.,24.0,0.,24.0,0.,24.0,0.,24.0
1979-03-01 03:12:47.750 ,4,1,0.,24.0,0.,24.0,0.,24.0,0.,24.0
1979-03-01 03:13:11.750 ,5,1,0.,24.0,0.,24.0,0.,24.0,0.,24.0
1979-03-01 03:13:35.750 ,6,1,,0,,0,,0,,0
1979-03-01 03:13:59.750 ,7,1,4.,24.0,0.,24.0,0.,24.0,0.,24.0
1979-03-01 03:14:23.750 ,7,1,10.,24.0,0.,24.0,0.,24.0,0.,24.0
1979-03-01 03:14:47.750 ,6,1,8.,24.0,0.,24.0,0.,24.0,0.,24.0
1979-03-01 03:15:11.750 ,5,1,0.,24.0,0.,24.0,0.,24.0,0.,24.0
1979-03-01 03:15:35.750 ,4,1,0.,24.0,0.,24.0,0.,24.0,0.,24.0
1979-03-01 03:15:59.750 ,3,1,0.,24.0,0.,24.0,0.,24.0,0.,24.0
1979-03-01 03:16:23.750 ,2,1,0.,24.0,0.,24.0,0.,24.0,0.,24.0
1979-03-01 03:16:47.750 ,1,1,0.,24.0,0.,24.0,0.,24.0,0.,24.0
1979-03-01 03:17:11.750 ,0,1,0.,24.0,0.,24.0,0.,24.0,0.,24.0
1979-03-01 03:17:35.750 ,0,1,0.,24.0,0.,24.0,0.,24.0,0.,24.0
1979-03-01 03:17:59.750 ,1,1,0.,24.0,0.,24.0,0.,24.0,0.,24.0
1979-03-01 03:18:23.750 ,2,1,0.,24.0,0.,24.0,0.,24.0,0.,24.0
1979-03-01 03:18:47.750 ,0,0,1.,24.0,0.,24.0,0.,24.0,0.,24.0
1979-03-01 03:19:11.750 ,0,0,2.,24.0,0.,24.0,0.,24.0,0.,24.0
1979-03-01 03:19:35.750 ,0,0,0.,24.0,0.,24.0,0.,24.0,0.,24.0
1979-03-01 03:19:59.750 ,6,1,0.,24.0,0.,24.0,0.,24.0,0.,24.0
1979-03-01 03:20:23.750 ,7,1,4.,24.0,0.,24.0,0.,24.0,0.,24.0
1979-03-01 03:20:47.750 ,7,1,14.,24.0,0.,24.0,0.,24.0,0.,24.0
1979-03-01 03:21:11.750 ,6,1,14.,24.0,0.,24.0,1.,24.0,0.,24.0
1979-03-01 03:21:35.750 ,0,0,0.,24.0,0.,24.0,0.,24.0,0.,24.0
1979-03-01 03:21:59.750 ,4,1,0.,24.0,0.,24.0,1.,24.0,0.,24.0
1979-03-01 03:22:23.750 ,3,1,0.,24.0,0.,24.0,0.,24.0,0.,24.0
1979-03-01 03:22:47.750 ,2,1,0.,24.0,0.,24.0,0.,24.0,0.,24.0
1979-03-01 03:23:11.750 ,1,1,0.,24.0,0.,24.0,1.,24.0,0.,24.0
1979-03-01 03:23:35.750 ,0,1,0.,24.0,0.,24.0,0.,24.0,0.,24.0
1979-03-01 03:23:59.750 ,0,1,0.,24.0,0.,24.0,0.,24.0,0.,24.0
1979-03-01 03:24:23.750 ,1,1,0.,24.0,0.,24.0,0.,24.0,0.,24.0
1979-03-01 03:24:47.750 ,2,1,1.,24.0,0.,24.0,0.,24.0,0.,24.0
1979-03-01 03:25:11.750 ,3,1,0.,24.0,0.,24.0,1.,24.0,0.,24.0
1979-03-01 03:25:35.750 ,4,1,,0,,0,,0,,0
1979-03-01 03:25:59.750 ,5,1,0.,24.0,0.,24.0,0.,24.0,0.,24.0
1979-03-01 03:26:23.750 ,6,1,0.,24.0,0.,24.0,0.,24.0,0.,24.0
1979-03-01 03:26:47.750 ,7,1,5.,24.0,0.,24.0,0.,24.0,0.,24.0
1979-03-01 03:27:11.750 ,7,1,8.,24.0,0.,24.0,0.,24.0,0.,24.0
1979-03-01 03:27:35.750 ,0,0,,0,,0,,0,,0
1979-03-01 03:27:41.150 ,6,1,4.,24.0,0.,24.0,0.,24.0,0.,24.0
1979-03-01 03:27:59.750 ,5,1,0.,24.0,1.,24.0,0.,24.0,0.,24.0
1979-03-01 03:28:23.750 ,4,1,1.,24.0,0.,24.0,1.,24.0,0.,24.0
1979-03-01 03:28:47.750 ,3,1,0.,24.0,0.,24.0,0.,24.0,0.,24.0
1979-03-01 03:29:11.750 ,2,1,0.,24.0,0.,24.0,0.,24.0,0.,24.0
1979-03-01 03:29:35.750 ,1,1,0.,24.0,0.,24.0,0.,24.0,0.,24.0
1979-03-01 03:29:59.750 ,0,1,0.,24.0,0.,24.0,0.,24.0,0.,24.0
1979-03-01 03:30:23.750 ,0,1,0.,24.0,0.,24.0,1.,24.0,0.,24.0
1979-03-01 03:30:47.750 ,1,1,0.,24.0,0.,24.0,0.,24.0,0.,24.0
1979-03-01 03:31:11.750 ,2,1,0.,24.0,0.,24.0,0.,24.0,0.,24.0
1979-03-01 03:31:35.750 ,3,1,0.,24.0,0.,24.0,0.,24.0,0.,24.0
1979-03-01 03:31:59.750 ,4,1,0.,24.0,0.,24.0,0.,24.0,0.,24.0
1979-03-01 03:32:23.750 ,5,1,0.,24.0,0.,24.0,0.,24.0,0.,24.0
1979-03-01 03:32:47.750 ,6,1,0.,24.0,0.,24.0,0.,24.0,0.,24.0
1979-03-01 03:33:11.750 ,7,1,4.,24.0,0.,24.0,1.,24.0,0.,24.0
1979-03-01 03:33:35.750 ,7,1,7.,24.0,0.,24.0,0.,24.0,0.,24.0
1979-03-01 03:33:59.750 ,6,1,13.,24.0,0.,24.0,0.,24.0,0.,24.0
1979-03-01 03:34:23.750 ,5,1,0.,24.0,0.,24.0,0.,24.0,0.,24.0
1979-03-01 03:34:47.750 ,4,1,0.,24.0,0.,24.0,0.,24.0,0.,24.0
1979-03-01 03:35:11.750 ,3,1,0.,24.0,0.,24.0,0.,24.0,0.,24.0
1979-03-01 03:35:35.750 ,2,1,0.,24.0,0.,24.0,0.,24.0,0.,24.0
1979-03-01 03:35:59.750 ,1,1,0.,24.0,0.,24.0,0.,24.0,0.,24.0
1979-03-01 03:36:23.750 ,0,1,1.,24.0,0.,24.0,0.,24.0,0.,24.0
1979-03-01 03:36:47.750 ,0,1,0.,24.0,0.,24.0,0.,24.0,0.,24.0
1979-03-01 03:37:11.750 ,1,1,1.,24.0,0.,24.0,0.,24.0,0.,24.0
1979-03-01 03:37:35.750 ,2,1,0.,24.0,0.,24.0,1.,24.0,0.,24.0
1979-03-01 03:37:59.750 ,3,1,1.,24.0,0.,24.0,0.,24.0,0.,24.0
1979-03-01 03:38:23.750 ,4,1,0.,24.0,0.,24.0,0.,24.0,0.,24.0
1979-03-01 03:38:47.750 ,5,1,0.,24.0,0.,24.0,0.,24.0,0.,24.0
1979-03-01 03:39:11.750 ,6,1,0.,24.0,0.,24.0,0.,24.0,0.,24.0
1979-03-01 03:39:35.750 ,7,1,0.,24.0,0.,24.0,0.,24.0,0.,24.0
1979-03-01 03:39:59.750 ,7,1,15.,24.0,0.,24.0,0.,24.0,0.,24.0
1979-03-01 03:40:23.750 ,6,1,3.,24.0,0.,24.0,0.,24.0,0.,24.0
1979-03-01 03:40:47.750 ,5,1,0.,24.0,0.,24.0,0.,24.0,0.,24.0
1979-03-01 03:41:11.750 ,4,1,0.,24.0,0.,24.0,0.,24.0,0.,24.0
1979-03-01 03:41:35.750 ,3,1,0.,24.0,0.,24.0,0.,24.0,0.,24.0
1979-03-01 03:41:59.750 ,2,1,0.,24.0,0.,24.0,0.,24.0,0.,24.0
1979-03-01 03:42:23.750 ,1,1,0.,24.0,0.,24.0,1.,24.0,0.,24.0
1979-03-01 03:42:47.750 ,0,1,0.,24.0,0.,24.0,0.,24.0,0.,24.0
1979-03-01 03:43:59.750 ,0,0,1.,24.0,0.,24.0,0.,24.0,0.,24.0
1979-03-01 03:44:23.750 ,3,1,1.,24.0,0.,24.0,0.,24.0,0.,24.0
1979-03-01 03:44:47.750 ,4,1,0.,24.0,0.,24.0,0.,24.0,0.,24.0
1979-03-01 03:45:11.750 ,5,1,0.,24.0,0.,24.0,1.,24.0,0.,24.0
1979-03-01 03:45:35.750 ,6,1,0.,24.0,0.,24.0,1.,24.0,0.,24.0
1979-03-01 03:45:59.750 ,7,1,1.,24.0,0.,24.0,0.,24.0,0.,24.0
1979-03-01 03:46:23.750 ,7,1,6.,24.0,0.,24.0,0.,24.0,0.,24.0
1979-03-01 03:46:47.750 ,6,1,5.,24.0,0.,24.0,0.,24.0,0.,24.0
1979-03-01 03:47:11.750 ,5,1,0.,24.0,0.,24.0,0.,24.0,0.,24.0
1979-03-01 03:47:35.750 ,4,1,0.,24.0,0.,24.0,0.,24.0,0.,24.0
1979-03-01 03:47:59.750 ,3,1,1.,24.0,0.,24.0,1.,24.0,0.,24.0
1979-03-01 03:48:23.750 ,2,1,0.,24.0,0.,24.0,0.,24.0,0.,24.0
1979-03-01 03:48:47.750 ,1,1,0.,24.0,0.,24.0,0.,24.0,0.,24.0
1979-03-01 03:49:11.750 ,0,1,0.,24.0,0.,24.0,0.,24.0,0.,24.0
1979-03-01 03:49:35.750 ,0,1,0.,24.0,0.,24.0,0.,24.0,0.,24.0
1979-03-01 03:49:59.750 ,1,1,0.,24.0,0.,24.0,1.,24.0,0.,24.0
1979-03-01 03:50:23.750 ,2,1,0.,24.0,0.,24.0,0.,24.0,0.,24.0
1979-03-01 03:50:47.750 ,3,1,0.,24.0,0.,24.0,0.,24.0,0.,24.0
1979-03-01 03:51:11.750 ,4,1,0.,24.0,0.,24.0,0.,24.0,0.,24.0
1979-03-01 03:51:35.750 ,5,1,0.,24.0,0.,24.0,0.,24.0,0.,24.0
1979-03-01 03:51:59.750 ,6,1,0.,24.0,0.,24.0,0.,24.0,0.,24.0
1979-03-01 03:52:23.750 ,7,1,2.,24.0,0.,24.0,0.,24.0,0.,24.0
1979-03-01 03:52:47.750 ,7,1,8.,24.0,0.,24.0,0.,24.0,0.,24.0
1979-03-01 03:53:11.750 ,6,1,13.,24.0,0.,24.0,1.,24.0,0.,24.0
1979-03-01 03:53:35.750 ,5,1,0.,24.0,1.,24.0,0.,24.0,0.,24.0
1979-03-01 03:53:59.750 ,4,1,0.,24.0,0.,24.0,0.,24.0,0.,24.0
1979-03-01 03:54:23.750 ,3,1,1.,24.0,0.,24.0,0.,24.0,0.,24.0
1979-03-01 03:54:47.750 ,2,1,0.,24.0,0.,24.0,0.,24.0,0.,24.0
1979-03-01 03:55:11.750 ,1,1,0.,24.0,0.,24.0,1.,24.0,0.,24.0
1979-03-01 03:55:35.750 ,0,1,0.,24.0,1.,24.0,0.,24.0,0.,24.0
1979-03-01 03:55:59.750 ,0,0,0.,24.0,0.,24.0,0.,24.0,0.,24.0
1979-03-01 03:56:23.750 ,0,0,,0,,0,,0,,0
1979-03-01 03:57:39.350 ,0,0,,0,,0,,0,,0
1979-03-01 03:57:59.750 ,0,0,,0,,0,,0,,0
1979-03-01 03:59:19.550 ,0,0,6.,24.0,0.,24.0,0.,24.0,0.,24.0
1979-03-01 03:59:35.750 ,6,1,8.,24.0,0.,24.0,0.,24.0,0.,24.0
1979-03-01 03:59:59.750 ,5,1,0.,24.0,0.,24.0,0.,24.0,0.,24.0
1979-03-01 04:00:23.750 ,4,1,0.,24.0,0.,24.0,0.,24.0,0.,24.0
1979-03-01 04:00:47.750 ,3,1,0.,24.0,0.,24.0,0.,24.0,0.,24.0
1979-03-01 04:01:11.750 ,2,1,0.,24.0,0.,24.0,0.,24.0,0.,24.0
1979-03-01 04:01:35.750 ,1,1,0.,24.0,0.,24.0,0.,24.0,0.,24.0
1979-03-01 04:01:59.750 ,0,1,0.,24.0,0.,24.0,1.,24.0,0.,24.0
1979-03-01 04:02:23.750 ,0,1,0.,24.0,0.,24.0,0.,24.0,0.,24.0
1979-03-01 04:02:47.750 ,1,1,0.,24.0,0.,24.0,0.,24.0,0.,24.0
1979-03-01 04:03:11.750 ,2,1,0.,24.0,0.,24.0,0.,24.0,0.,24.0
1979-03-01 04:03:35.750 ,3,1,0.,24.0,0.,24.0,0.,24.0,0.,24.0
1979-03-01 04:03:59.750 ,4,1,0.,24.0,0.,24.0,0.,24.0,0.,24.0
1979-03-01 04:04:23.750 ,5,1,0.,24.0,0.,24.0,0.,24.0,0.,24.0
1979-03-01 04:04:47.750 ,6,1,0.,24.0,0.,24.0,0.,24.0,0.,24.0
1979-03-01 04:05:11.750 ,7,1,3.,24.0,0.,24.0,0.,24.0,0.,24.0
1979-03-01 04:05:35.750 ,7,1,12.,24.0,0.,24.0,0.,24.0,0.,24.0
1979-03-01 04:05:59.750 ,6,1,3.,24.0,0.,24.0,0.,24.0,0.,24.0
1979-03-01 04:06:23.750 ,5,1,0.,24.0,0.,24.0,0.,24.0,0.,24.0
1979-03-01 04:06:47.750 ,4,1,0.,24.0,0.,24.0,0.,24.0,0.,24.0
1979-03-01 04:07:11.750 ,3,1,0.,24.0,0.,24.0,0.,24.0,0.,24.0
1979-03-01 04:07:35.750 ,2,1,0.,24.0,0.,24.0,0.,24.0,0.,24.0
1979-03-01 04:07:59.750 ,1,1,0.,24.0,0.,24.0,0.,24.0,0.,24.0
1979-03-01 04:08:23.750 ,0,1,0.,24.0,0.,24.0,0.,24.0,0.,24.0
1979-03-01 04:08:47.750 ,0,1,0.,24.0,0.,24.0,0.,24.0,0.,24.0
1979-03-01 04:09:11.750 ,1,1,0.,24.0,0.,24.0,0.,24.0,0.,24.0
1979-03-01 04:09:35.750 ,2,1,0.,24.0,0.,24.0,0.,24.0,0.,24.0
1979-03-01 04:09:59.750 ,3,1,0.,24.0,0.,24.0,0.,24.0,0.,24.0
1979-03-01 04:10:23.750 ,4,1,0.,24.0,0.,24.0,0.,24.0,0.,24.0
1979-03-01 04:10:47.750 ,5,1,0.,24.0,0.,24.0,0.,24.0,0.,24.0
1979-03-01 04:11:11.750 ,6,1,0.,24.0,1.,24.0,0.,24.0,0.,24.0
1979-03-01 04:11:35.750 ,7,1,4.,24.0,0.,24.0,0.,24.0,0.,24.0
1979-03-01 04:11:59.750 ,7,1,10.,24.0,0.,24.0,0.,24.0,0.,24.0
1979-03-01 04:12:23.750 ,6,1,5.,24.0,0.,24.0,0.,24.0,0.,24.0
1979-03-01 04:12:47.750 ,5,1,0.,24.0,0.,24.0,0.,24.0,0.,24.0
1979-03-01 04:13:11.750 ,4,1,0.,24.0,0.,24.0,0.,24.0,0.,24.0
1979-03-01 04:13:35.750 ,3,1,0.,24.0,0.,24.0,0.,24.0,0.,24.0
1979-03-01 04:13:59.750 ,2,1,0.,24.0,0.,24.0,0.,24.0,0.,24.0
1979-03-01 04:14:23.750 ,1,1,0.,24.0,0.,24.0,0.,24.0,0.,24.0
1979-03-01 04:14:47.750 ,0,1,0.,24.0,0.,24.0,0.,24.0,0.,24.0
1979-03-01 04:15:11.750 ,0,1,0.,24.0,0.,24.0,0.,24.0,0.,24.0
1979-03-01 04:15:35.750 ,1,1,1.,24.0,0.,24.0,0.,24.0,0.,24.0
1979-03-01 04:15:59.750 ,2,1,0.,24.0,0.,24.0,0.,24.0,0.,24.0
1979-03-01 04:16:23.750 ,3,1,0.,24.0,0.,24.0,0.,24.0,0.,24.0
1979-03-01 04:16:47.750 ,4,1,0.,24.0,0.,24.0,0.,24.0,0.,24.0
1979-03-01 04:17:11.750 ,5,1,0.,24.0,0.,24.0,0.,24.0,0.,24.0
1979-03-01 04:17:35.750 ,6,1,1.,24.0,0.,24.0,0.,24.0,0.,24.0
1979-03-01 04:17:59.750 ,7,1,2.,24.0,0.,24.0,1.,24.0,0.,24.0
1979-03-01 04:18:23.750 ,7,1,14.,24.0,0.,24.0,1.,24.0,0.,24.0
1979-03-01 04:18:47.750 ,6,1,8.,24.0,0.,24.0,0.,24.0,0.,24.0
1979-03-01 04:19:11.750 ,5,1,0.,24.0,0.,24.0,0.,24.0,0.,24.0
1979-03-01 04:19:35.750 ,4,1,0.,24.0,0.,24.0,0.,24.0,0.,24.0
1979-03-01 04:19:59.750 ,3,1,0.,24.0,0.,24.0,0.,24.0,0.,24.0
1979-03-01 04:20:23.750 ,2,1,0.,24.0,1.,24.0,0.,24.0,0.,24.0
1979-03-01 04:20:47.750 ,1,1,0.,24.0,0.,24.0,0.,24.0,0.,24.0
1979-03-01 04:21:11.750 ,0,1,0.,24.0,0.,24.0,0.,24.0,0.,24.0
1979-03-01 04:21:35.750 ,0,1,0.,24.0,0.,24.0,0.,24.0,0.,24.0
1979-03-01 04:21:59.750 ,1,1,0.,24.0,0.,24.0,0.,24.0,0.,24.0
1979-03-01 04:22:23.750 ,2,1,0.,24.0,0.,24.0,0.,24.0,0.,24.0
1979-03-01 04:22:47.750 ,3,1,0.,24.0,0.,24.0,0.,24.0,0.,24.0
1979-03-01 04:23:11.750 ,4,1,0.,24.0,0.,24.0,1.,24.0,0.,24.0
1979-03-01 04:23:35.750 ,5,1,0.,24.0,0.,24.0,1.,24.0,0.,24.0
1979-03-01 04:23:59.750 ,6,1,0.,24.0,0.,24.0,0.,24.0,0.,24.0
1979-03-01 04:24:23.750 ,0,0,,0,,0,,0,,0
1979-03-01 04:24:47.750 ,7,1,11.,24.0,0.,24.0,0.,24.0,0.,24.0
1979-03-01 04:25:11.750 ,6,1,6.,24.0,0.,24.0,0.,24.0,0.,24.0
1979-03-01 04:25:35.750 ,5,1,0.,24.0,0.,24.0,1.,24.0,0.,24.0
1979-03-01 04:25:59.750 ,4,1,0.,24.0,0.,24.0,0.,24.0,0.,24.0
1979-03-01 04:26:23.750 ,3,1,0.,24.0,0.,24.0,0.,24.0,0.,24.0
1979-03-01 04:26:47.750 ,2,1,0.,24.0,0.,24.0,1.,24.0,0.,24.0
1979-03-01 04:27:11.750 ,1,1,0.,24.0,0.,24.0,0.,24.0,0.,24.0
1979-03-01 04:27:35.750 ,0,1,0.,24.0,0.,24.0,0.,24.0,0.,24.0
1979-03-01 04:27:59.750 ,0,1,0.,24.0,0.,24.0,0.,24.0,0.,24.0
1979-03-01 04:28:23.750 ,1,1,1.,24.0,0.,24.0,0.,24.0,0.,24.0
1979-03-01 04:28:47.750 ,2,1,0.,24.0,0.,24.0,1.,24.0,0.,24.0
1979-03-01 04:29:11.750 ,3,1,0.,24.0,0.,24.0,0.,24.0,0.,24.0
1979-03-01 04:29:35.750 ,4,1,1.,24.0,0.,24.0,0.,24.0,0.,24.0
1979-03-01 04:29:59.750 ,5,1,0.,24.0,0.,24.0,1.,24.0,0.,24.0
1979-03-01 04:30:23.750 ,6,1,0.,24.0,0.,24.0,0.,24.0,0.,24.0
1979-03-01 04:30:47.750 ,7,1,1.,24.0,0.,24.0,0.,24.0,0.,24.0
1979-03-01 04:31:11.750 ,7,1,4.,24.0,0.,24.0,0.,24.0,0.,24.0
1979-03-01 04:31:35.750 ,6,1,11.,24.0,0.,24.0,0.,24.0,0.,24.0
1979-03-01 04:31:59.750 ,5,1,0.,24.0,0.,24.0,2.,24.0,0.,24.0
1979-03-01 04:32:23.750 ,4,1,1.,24.0,1.,24.0,0.,24.0,0.,24.0
1979-03-01 04:32:47.750 ,3,1,0.,24.0,0.,24.0,0.,24.0,0.,24.0
1979-03-01 04:33:11.750 ,2,1,0.,24.0,0.,24.0,0.,24.0,0.,24.0
1979-03-01 04:33:35.750 ,1,1,1.,24.0,0.,24.0,0.,24.0,0.,24.0
1979-03-01 04:33:59.750 ,0,1,0.,24.0,0.,24.0,0.,24.0,0.,24.0
1979-03-01 04:34:23.750 ,0,1,0.,24.0,0.,24.0,0.,24.0,0.,24.0
1979-03-01 04:34:47.750 ,1,1,0.,24.0,0.,24.0,0.,24.0,0.,24.0
1979-03-01 04:35:11.750 ,2,1,0.,24.0,0.,24.0,0.,24.0,0.,24.0
1979-03-01 04:35:35.750 ,3,1,1.,24.0,0.,24.0,0.,24.0,0.,24.0
1979-03-01 04:35:59.750 ,4,1,0.,24.0,0.,24.0,0.,24.0,0.,24.0
1979-03-01 04:36:23.750 ,5,1,0.,24.0,0.,24.0,0.,24.0,0.,24.0
1979-03-01 04:36:47.750 ,6,1,0.,24.0,0.,24.0,0.,24.0,0.,24.0
1979-03-01 04:37:11.750 ,7,1,5.,24.0,0.,24.0,0.,24.0,0.,24.0
1979-03-01 04:37:35.750 ,7,1,10.,24.0,0.,24.0,0.,24.0,0.,24.0
1979-03-01 04:37:59.750 ,6,1,7.,24.0,0.,24.0,0.,24.0,0.,24.0
1979-03-01 04:38:23.750 ,5,1,1.,24.0,1.,24.0,0.,24.0,0.,24.0
1979-03-01 04:38:47.750 ,4,1,0.,24.0,0.,24.0,0.,24.0,0.,24.0
1979-03-01 04:39:11.750 ,3,1,0.,24.0,0.,24.0,0.,24.0,0.,24.0
1979-03-01 04:39:35.750 ,2,1,0.,24.0,0.,24.0,0.,24.0,0.,24.0
1979-03-01 04:39:59.750 ,1,1,0.,24.0,0.,24.0,0.,24.0,0.,24.0
1979-03-01 04:40:23.750 ,0,1,0.,24.0,0.,24.0,1.,24.0,0.,24.0
1979-03-01 04:40:47.750 ,0,1,0.,24.0,0.,24.0,0.,24.0,0.,24.0
1979-03-01 04:41:11.750 ,1,1,0.,24.0,0.,24.0,0.,24.0,0.,24.0
1979-03-01 04:41:35.750 ,2,1,0.,24.0,0.,24.0,0.,24.0,0.,24.0
1979-03-01 04:41:59.750 ,3,1,0.,24.0,0.,24.0,0.,24.0,0.,24.0
1979-03-01 04:42:23.750 ,4,1,0.,24.0,0.,24.0,0.,24.0,0.,24.0
1979-03-01 04:42:47.750 ,5,1,0.,24.0,0.,24.0,0.,24.0,0.,24.0
1979-03-01 04:43:11.750 ,6,1,0.,24.0,0.,24.0,0.,24.0,0.,24.0
1979-03-01 04:43:35.750 ,7,1,2.,24.0,0.,24.0,1.,24.0,0.,24.0
1979-03-01 04:43:59.750 ,7,1,8.,24.0,0.,24.0,0.,24.0,0.,24.0
1979-03-01 04:44:23.750 ,6,1,3.,24.0,0.,24.0,0.,24.0,0.,24.0
1979-03-01 04:44:47.750 ,5,1,0.,24.0,0.,24.0,0.,24.0,0.,24.0
1979-03-01 04:45:11.750 ,4,1,0.,24.0,0.,24.0,0.,24.0,0.,24.0
1979-03-01 04:45:35.750 ,3,1,0.,24.0,0.,24.0,0.,24.0,0.,24.0
1979-03-01 04:45:59.750 ,2,1,0.,24.0,0.,24.0,0.,24.0,0.,24.0
1979-03-01 04:46:23.750 ,1,1,1.,24.0,0.,24.0,1.,24.0,0.,24.0
1979-03-01 04:46:47.750 ,0,1,1.,24.0,0.,24.0,0.,24.0,0.,24.0
1979-03-01 04:47:11.750 ,0,1,0.,24.0,0.,24.0,0.,24.0,0.,24.0
1979-03-01 04:47:35.750 ,1,1,0.,24.0,0.,24.0,0.,24.0,0.,24.0
1979-03-01 04:47:59.750 ,2,1,0.,24.0,0.,24.0,0.,24.0,0.,24.0
1979-03-01 04:48:23.750 ,3,1,0.,24.0,0.,24.0,0.,24.0,0.,24.0
1979-03-01 04:48:47.750 ,4,1,0.,24.0,1.,24.0,0.,24.0,0.,24.0
1979-03-01 04:49:11.750 ,5,1,1.,24.0,0.,24.0,0.,24.0,0.,24.0
1979-03-01 04:49:35.750 ,6,1,0.,24.0,0.,24.0,0.,24.0,0.,24.0
1979-03-01 04:49:59.750 ,7,1,3.,24.0,0.,24.0,0.,24.0,0.,24.0
1979-03-01 04:50:23.750 ,7,1,15.,24.0,0.,24.0,1.,24.0,0.,24.0
1979-03-01 04:50:47.750 ,6,1,9.,24.0,0.,24.0,1.,24.0,0.,24.0
1979-03-01 04:51:11.750 ,5,1,0.,24.0,0.,24.0,0.,24.0,0.,24.0
1979-03-01 04:51:35.750 ,4,1,0.,24.0,0.,24.0,1.,24.0,0.,24.0
1979-03-01 04:51:59.750 ,3,1,0.,24.0,0.,24.0,0.,24.0,0.,24.0
1979-03-01 04:52:23.750 ,2,1,0.,24.0,0.,24.0,1.,24.0,0.,24.0
1979-03-01 04:52:47.750 ,1,1,1.,24.0,0.,24.0,0.,24.0,0.,24.0
1979-03-01 04:53:11.750 ,0,1,0.,24.0,0.,24.0,0.,24.0,0.,24.0
1979-03-01 04:53:35.750 ,0,1,0.,24.0,0.,24.0,1.,24.0,0.,24.0
1979-03-01 04:53:59.750 ,1,1,0.,24.0,0.,24.0,0.,24.0,0.,24.0
1979-03-01 04:54:23.750 ,2,1,0.,24.0,0.,24.0,0.,24.0,0.,24.0
1979-03-01 04:54:47.750 ,3,1,0.,24.0,0.,24.0,0.,24.0,0.,24.0
1979-03-01 04:55:11.750 ,4,1,0.,24.0,0.,24.0,0.,24.0,0.,24.0
1979-03-01 04:55:35.750 ,5,1,0.,24.0,0.,24.0,0.,24.0,0.,24.0
1979-03-01 04:55:59.750 ,6,1,0.,24.0,0.,24.0,0.,24.0,0.,24.0
1979-03-01 04:56:23.750 ,7,1,1.,24.0,0.,24.0,0.,24.0,0.,24.0
1979-03-01 04:56:47.750 ,7,1,10.,24.0,0.,24.0,0.,24.0,0.,24.0
1979-03-01 04:57:11.750 ,6,1,5.,24.0,0.,24.0,0.,24.0,0.,24.0
1979-03-01 04:57:35.750 ,5,1,0.,24.0,0.,24.0,0.,24.0,0.,24.0
1979-03-01 04:57:59.750 ,4,1,0.,24.0,0.,24.0,0.,24.0,0.,24.0
1979-03-01 04:58:23.750 ,3,1,0.,24.0,0.,24.0,0.,24.0,0.,24.0
1979-03-01 04:58:47.750 ,2,1,1.,24.0,1.,24.0,0.,24.0,0.,24.0
1979-03-01 04:59:11.750 ,1,1,0.,24.0,0.,24.0,0.,24.0,0.,24.0
1979-03-01 04:59:35.750 ,0,1,0.,24.0,1.,24.0,0.,24.0,0.,24.0
1979-03-01 04:59:59.750 ,0,1,0.,24.0,0.,24.0,1.,24.0,0.,24.0
1979-03-01 05:00:23.750 ,1,1,0.,24.0,0.,24.0,0.,24.0,0.,24.0
1979-03-01 05:00:47.750 ,2,1,0.,24.0,0.,24.0,0.,24.0,0.,24.0
1979-03-01 05:01:11.750 ,3,1,0.,24.0,0.,24.0,0.,24.0,0.,24.0
1979-03-01 05:01:35.750 ,4,1,0.,24.0,0.,24.0,0.,24.0,0.,24.0
1979-03-01 05:01:59.750 ,5,1,0.,24.0,0.,24.0,0.,24.0,0.,24.0
1979-03-01 05:02:23.750 ,6,1,0.,24.0,0.,24.0,0.,24.0,0.,24.0
1979-03-01 05:02:47.750 ,7,1,2.,24.0,0.,24.0,0.,24.0,0.,24.0
1979-03-01 05:03:59.750 ,0,0,0.,24.0,0.,24.0,0.,24.0,0.,24.0
1979-03-01 05:04:23.750 ,4,1,0.,24.0,0.,24.0,0.,24.0,0.,24.0
1979-03-01 05:04:47.750 ,3,1,0.,24.0,0.,24.0,0.,24.0,0.,24.0
1979-03-01 05:05:11.750 ,2,1,0.,24.0,0.,24.0,0.,24.0,0.,24.0
1979-03-01 05:05:35.750 ,1,1,0.,24.0,0.,24.0,0.,24.0,0.,24.0
1979-03-01 05:05:59.750 ,0,1,0.,24.0,0.,24.0,0.,24.0,0.,24.0
1979-03-01 05:06:23.750 ,0,1,0.,24.0,0.,24.0,0.,24.0,0.,24.0
1979-03-01 05:06:47.750 ,1,1,1.,24.0,0.,24.0,0.,24.0,0.,24.0
1979-03-01 05:07:11.750 ,2,1,0.,24.0,0.,24.0,0.,24.0,0.,24.0
1979-03-01 05:07:35.750 ,3,1,0.,24.0,0.,24.0,0.,24.0,0.,24.0
1979-03-01 05:07:59.750 ,4,1,0.,24.0,0.,24.0,0.,24.0,0.,24.0
1979-03-01 05:08:23.750 ,5,1,0.,24.0,0.,24.0,0.,24.0,0.,24.0
1979-03-01 05:08:47.750 ,6,1,0.,24.0,0.,24.0,1.,24.0,0.,24.0
1979-03-01 05:09:11.750 ,7,1,1.,24.0,0.,24.0,0.,24.0,0.,24.0
1979-03-01 05:09:35.750 ,7,1,2.,24.0,0.,24.0,0.,24.0,0.,24.0
1979-03-01 05:09:59.750 ,6,1,5.,24.0,0.,24.0,0.,24.0,0.,24.0
1979-03-01 05:10:23.750 ,5,1,0.,24.0,0.,24.0,0.,24.0,0.,24.0
1979-03-01 05:10:47.750 ,4,1,0.,24.0,0.,24.0,0.,24.0,0.,24.0
1979-03-01 05:11:11.750 ,3,1,0.,24.0,0.,24.0,0.,24.0,0.,24.0
1979-03-01 05:11:35.750 ,2,1,0.,24.0,0.,24.0,0.,24.0,0.,24.0
1979-03-01 05:11:59.750 ,1,1,2.,24.0,0.,24.0,0.,24.0,0.,24.0
1979-03-01 05:12:23.750 ,0,1,0.,24.0,0.,24.0,0.,24.0,0.,24.0
1979-03-01 05:12:47.750 ,0,1,0.,24.0,0.,24.0,0.,24.0,0.,24.0
1979-03-01 05:13:11.750 ,1,1,0.,24.0,0.,24.0,1.,24.0,0.,24.0
1979-03-01 05:13:35.750 ,2,1,0.,24.0,0.,24.0,0.,24.0,0.,24.0
1979-03-01 05:13:59.750 ,3,1,0.,24.0,0.,24.0,0.,24.0,0.,24.0
1979-03-01 05:14:23.750 ,4,1,0.,24.0,0.,24.0,0.,24.0,0.,24.0
1979-03-01 05:14:47.750 ,5,1,0.,24.0,0.,24.0,1.,24.0,0.,24.0
1979-03-01 05:15:11.750 ,6,1,0.,24.0,0.,24.0,0.,24.0,0.,24.0
1979-03-01 05:15:35.750 ,7,1,3.,24.0,0.,24.0,0.,24.0,0.,24.0
1979-03-01 05:15:59.750 ,7,1,11.,24.0,0.,24.0,0.,24.0,0.,24.0
1979-03-01 05:16:23.750 ,6,1,4.,24.0,0.,24.0,0.,24.0,0.,24.0
1979-03-01 05:16:47.750 ,5,1,0.,24.0,0.,24.0,0.,24.0,0.,24.0
1979-03-01 05:17:11.750 ,4,1,0.,24.0,0.,24.0,0.,24.0,0.,24.0
1979-03-01 05:17:35.750 ,3,1,0.,24.0,0.,24.0,0.,24.0,0.,24.0
1979-03-01 05:17:59.750 ,2,1,0.,24.0,0.,24.0,0.,24.0,0.,24.0
1979-03-01 05:18:23.750 ,1,1,0.,24.0,0.,24.0,1.,24.0,0.,24.0
1979-03-01 05:18:47.750 ,0,1,0.,24.0,0.,24.0,1.,24.0,0.,24.0
1979-03-01 05:19:11.750 ,0,1,0.,24.0,1.,24.0,0.,24.0,0.,24.0
1979-03-01 05:19:35.750 ,1,1,1.,24.0,0.,24.0,0.,24.0,0.,24.0
1979-03-01 05:19:59.750 ,2,1,0.,24.0,1.,24.0,0.,24.0,0.,24.0
1979-03-01 05:20:23.750 ,3,1,0.,24.0,0.,24.0,0.,24.0,0.,24.0
1979-03-01 05:20:47.750 ,4,1,0.,24.0,0.,24.0,1.,24.0,0.,24.0
1979-03-01 05:21:11.750 ,5,1,0.,24.0,0.,24.0,0.,24.0,0.,24.0
1979-03-01 05:21:35.750 ,6,1,0.,24.0,0.,24.0,0.,24.0,0.,24.0
1979-03-01 05:21:59.750 ,7,1,1.,24.0,0.,24.0,0.,24.0,0.,24.0
1979-03-01 05:22:23.750 ,7,1,5.,24.0,0.,24.0,0.,24.0,0.,24.0
1979-03-01 05:22:47.750 ,6,1,11.,24.0,0.,24.0,0.,24.0,0.,24.0
1979-03-01 05:23:11.750 ,5,1,0.,24.0,0.,24.0,0.,24.0,0.,24.0
1979-03-01 05:23:35.750 ,4,1,0.,24.0,0.,24.0,1.,24.0,0.,24.0
1979-03-01 05:23:59.750 ,3,1,0.,24.0,0.,24.0,0.,24.0,0.,24.0
1979-03-01 05:24:23.750 ,2,1,0.,24.0,0.,24.0,0.,24.0,0.,24.0
1979-03-01 05:24:47.750 ,1,1,0.,24.0,0.,24.0,0.,24.0,0.,24.0
1979-03-01 05:25:11.750 ,0,1,1.,24.0,0.,24.0,0.,24.0,0.,24.0
1979-03-01 05:25:35.750 ,0,1,0.,24.0,1.,24.0,1.,24.0,0.,24.0
1979-03-01 05:25:59.750 ,1,1,1.,24.0,0.,24.0,1.,24.0,0.,24.0
1979-03-01 05:26:23.750 ,2,1,1.,24.0,0.,24.0,0.,24.0,0.,24.0
1979-03-01 05:26:47.750 ,3,1,0.,24.0,0.,24.0,0.,24.0,0.,24.0
1979-03-01 05:27:11.750 ,4,1,0.,24.0,0.,24.0,0.,24.0,0.,24.0
1979-03-01 05:27:35.750 ,5,1,0.,24.0,0.,24.0,0.,24.0,0.,24.0
1979-03-01 05:27:59.750 ,6,1,1.,24.0,0.,24.0,1.,24.0,0.,24.0
1979-03-01 05:28:23.750 ,7,1,2.,24.0,0.,24.0,0.,24.0,0.,24.0
1979-03-01 05:28:47.750 ,7,1,5.,24.0,0.,24.0,1.,24.0,0.,24.0
1979-03-01 05:29:11.750 ,6,1,7.,24.0,0.,24.0,0.,24.0,0.,24.0
1979-03-01 05:29:35.750 ,5,1,0.,24.0,0.,24.0,0.,24.0,0.,24.0
1979-03-01 05:29:59.750 ,4,1,0.,24.0,0.,24.0,0.,24.0,0.,24.0
1979-03-01 05:30:23.750 ,3,1,0.,24.0,0.,24.0,0.,24.0,0.,24.0
1979-03-01 05:30:47.750 ,2,1,0.,24.0,0.,24.0,0.,24.0,0.,24.0
1979-03-01 05:31:11.750 ,1,1,0.,24.0,0.,24.0,1.,24.0,0.,24.0
1979-03-01 05:31:35.750 ,0,1,0.,24.0,0.,24.0,0.,24.0,0.,24.0
1979-03-01 05:31:59.750 ,0,1,0.,24.0,0.,24.0,0.,24.0,0.,24.0
1979-03-01 05:32:23.750 ,1,1,0.,24.0,0.,24.0,1.,24.0,0.,24.0
1979-03-01 05:32:47.750 ,2,1,0.,24.0,0.,24.0,0.,24.0,0.,24.0
1979-03-01 05:33:11.750 ,3,1,0.,24.0,0.,24.0,0.,24.0,0.,24.0
1979-03-01 05:33:35.750 ,4,1,0.,24.0,0.,24.0,0.,24.0,0.,24.0
1979-03-01 05:33:59.750 ,5,1,0.,24.0,0.,24.0,0.,24.0,0.,24.0
1979-03-01 05:34:23.750 ,6,1,1.,24.0,0.,24.0,0.,24.0,0.,24.0
1979-03-01 05:34:47.750 ,7,1,1.,24.0,0.,24.0,0.,24.0,0.,24.0
1979-03-01 05:35:11.750 ,7,1,10.,24.0,0.,24.0,0.,24.0,0.,24.0
1979-03-01 05:35:35.750 ,6,1,11.,24.0,0.,24.0,0.,24.0,0.,24.0
1979-03-01 05:35:59.750 ,5,1,0.,24.0,0.,24.0,0.,24.0,0.,24.0
1979-03-01 05:36:23.750 ,4,1,0.,24.0,0.,24.0,0.,24.0,0.,24.0
1979-03-01 05:36:47.750 ,3,1,0.,24.0,0.,24.0,0.,24.0,0.,24.0
1979-03-01 05:37:11.750 ,2,1,0.,24.0,0.,24.0,0.,24.0,0.,24.0
1979-03-01 05:37:35.750 ,1,1,0.,24.0,0.,24.0,0.,24.0,0.,24.0